[[{"header":{"parameterUnit":"m.s-1","parameterCategory":1,"la1":30.2991,"la2":30.254,"lo1":-89.0895,"lo2":-89.0444,"dy":0.0017,"dx":0.0017,"nx":28,"ny":28,"refTime":"2025-04-17T21:00:00:Z","depth":0,"parameterNumber":2,"parameterNumberName":"U-component_of_WINDS"},"data":[0,0,0,0,0,0,0,0,0,0,0,0,0,0,0,0,0,0,0,0,0,0,0,0,0,0,0,0,0,0,0,0,0,0,0,0,0,0,0,0,0,0,0,0,0,0,0,0,0,0,0,0,0,0,0,0,0,0,-4.3522,-4.3524,0,-4.3651,-4.3652,-4.3654,-4.367,-4.3669,-4.3668,-4.3667,-4.3799,-4.3804,-4.3808,0,0,0,0,0,0,0,0,0,0,0,0,0,-4.3293,-4.3297,-4.3522,-4.3524,-4.3525,-4.3651,-4.3652,-4.3654,-4.367,-4.3669,-4.3667,-4.3666,-4.3798,-4.3803,-4.3809,0,0,0,0,0,0,0,0,0,0,0,0,0,-4.3404,-4.3299,-4.3522,-4.3549,-4.3552,-4.365,-4.3652,-4.3655,-4.3671,-4.3669,-4.3667,-4.3665,-4.3796,-4.3803,-4.381,-4.389,0,0,-4.3831,-4.3834,0,0,0,0,0,0,0,0,-4.3398,-4.3413,-4.3543,-4.3547,-4.3551,-4.3643,-4.362,-4.3734,-4.3671,-4.3626,-4.3667,-4.3664,-4.3749,-4.3759,-4.3788,-4.3896,-4.3902,-4.3832,-4.3836,-4.3839,-4.3841,0,0,0,0,0,0,0,-4.339,-4.3407,-4.3573,-4.3545,-4.355,-4.3555,-4.3569,-4.3642,-4.3696,-4.363,-4.3631,-4.3646,-4.375,-4.3781,-4.3791,-4.3904,-4.3831,-4.3838,-4.3842,-4.3845,-4.4088,-4.409,0,0,0,0,0,0,-4.3377,-4.3401,-4.3569,-4.3577,-4.3468,-4.3561,-4.3576,-4.3615,-4.3695,-4.3706,-4.3647,-4.3646,-4.377,-4.3783,-4.3796,-4.3896,-4.3839,-4.3845,-4.385,-4.4085,-4.4088,-4.409,0,0,0,0,0,0,-4.3372,-4.3392,-4.3564,-4.3489,-4.3512,-4.3567,-4.361,-4.3619,-4.3649,-4.3709,-4.3719,-4.3668,-4.3769,-4.3786,-4.3867,-4.3901,-4.3849,-4.3855,-4.4083,-4.4086,-4.4089,-4.4096,0,0,0,0,0,0,-4.3366,-4.339,-4.3421,-4.349,-4.3515,-4.3632,-4.3612,-4.3622,-4.3661,-4.3661,-4.3731,-4.3741,-4.3769,-4.3856,-4.3874,-4.3909,-4.3861,-4.408,-4.4084,-4.4088,-4.4093,-4.4099,-4.4105,0,0,0,0,0,-4.3358,-4.3417,-4.3422,-4.3442,-4.3554,-4.3634,-4.3648,-4.3679,-4.3663,-4.3695,-4.3734,-4.3739,-4.3895,-4.3864,-4.3884,-4.3922,-4.4078,-4.4083,-4.4088,-4.4091,-4.4098,-4.4105,0,0,0,0,0,0,-4.335,-4.3427,-4.3433,-4.3516,-4.3569,-4.3636,-4.3676,-4.3686,-4.3743,-4.374,-4.3777,-4.3792,-4.3872,-4.3906,-4.3871,-4.4006,-4.3985,-4.3994,-4.398,-4.3988,-4.3994,-4.3983,-4.3866,0,0,0,0,0,-4.3358,-4.3416,-4.348,-4.3548,-4.3574,-4.3621,-4.3656,-4.3676,-4.3731,-4.3753,-4.3798,-4.3852,-4.3914,-4.3953,-4.4013,-4.4099,-4.4115,-4.4136,-4.4141,-4.4146,-4.4153,-4.4202,-4.4212,-4.4107,-4.4107,-4.4107,0,0,-4.3375,-4.3424,-4.3458,-4.3548,-4.359,-4.365,-4.3639,-4.3702,-4.3747,-4.3763,-4.3842,-4.3877,-4.394,-4.4025,-4.4064,-4.4055,-4.4186,-4.4152,-4.4155,-4.416,-4.4209,-4.4219,-4.4227,-4.411,-4.411,-4.4109,0,0,-4.3437,-4.348,-4.3541,-4.3585,-4.3649,-4.3681,-4.3696,-4.3763,-4.3787,-4.3867,-4.3881,-4.3936,-4.4041,-4.4085,-4.4122,-4.4204,-4.4211,-4.4223,-4.4252,-4.43,-4.4308,-4.4316,-4.4345,-4.4355,-4.423,-4.423,-4.423,0,-4.345,-4.3539,-4.3572,-4.3635,-4.3674,-4.3692,-4.3756,-4.3797,-4.3878,-4.3905,-4.3894,-4.4027,-4.4071,-4.4167,-4.4187,-4.4216,-4.4235,-4.4213,-4.4304,-4.4312,-4.432,-4.4348,-4.4359,-4.4231,-4.4231,-4.4231,-4.423,0,-4.3552,-4.3614,-4.3657,-4.3734,-4.3779,-4.3842,-4.3885,-4.3926,-4.3943,-4.3976,-4.4059,-4.4113,-4.4184,-4.4209,-4.4225,-4.4308,-4.43,-4.4297,-4.4276,-4.433,-4.4357,-4.4368,-4.4232,-4.4232,-4.4232,-4.4231,0,0,-4.3609,-4.3707,-4.3721,-4.3758,-4.3832,-4.3881,-4.3946,-4.4016,-4.4051,-4.4108,-4.4163,-4.4253,-4.4251,-4.4293,-4.4315,-4.4357,-4.4419,-4.4349,-4.4351,-4.4359,-4.4514,-4.4516,-4.4528,-4.4426,-4.4428,-4.443,-4.4509,0,-4.3679,-4.3793,-4.3826,-4.3923,-4.3982,-4.4002,-4.4059,-4.4111,-4.4145,-4.42,-4.4238,-4.4301,-4.4293,-4.4318,-4.4361,-4.4402,-4.4451,-4.4398,-4.4478,-4.448,-4.446,-4.4542,-4.4543,-4.4615,-4.452,-4.4522,-4.4523,0,-4.3774,-4.3832,-4.3935,-4.4004,-4.403,-4.408,-4.4148,-4.4201,-4.4262,-4.4284,-4.4331,-4.4351,-4.442,-4.4398,-4.4495,-4.4458,-4.4494,-4.452,-4.4523,-4.4531,-4.4503,-4.4551,-4.4639,-4.4649,-4.454,-4.4539,-4.4538,0,-4.3805,-4.391,-4.3985,-4.4016,-4.4098,-4.4133,-4.4169,-4.4228,-4.4269,-4.4329,-4.4356,-4.4424,-4.4461,-4.4513,-4.4551,-4.4531,-4.4646,-4.4626,-4.4666,-4.4665,-4.4687,-4.4685,-4.4782,-4.4712,-4.4712,-4.4712,-4.4712,0,-4.3878,-4.394,-4.4,-4.4046,-4.4117,-4.4156,-4.4225,-4.4262,-4.4316,-4.437,-4.4393,-4.4444,-4.4491,-4.455,-4.458,-4.4656,-4.4673,-4.4693,-4.47,-4.469,-4.4688,-4.4713,-4.4708,-4.4715,-4.4714,-4.4714,-4.4713,0,-4.3923,-4.3966,-4.405,-4.4121,-4.4141,-4.419,-4.4252,-4.4298,-4.4334,-4.4403,-4.4422,-4.4478,-4.4548,-4.4591,-4.468,-4.4701,-4.4785,-4.4791,-4.4764,-4.4767,-4.4804,-4.48,-4.4919,-4.4937,-4.4856,-4.4857,-4.4857,0,-4.3966,-4.4015,-4.4092,-4.413,-4.4166,-4.4228,-4.427,-4.4311,-4.4354,-4.4428,-4.4466,-4.4538,-4.4596,-4.4708,-4.4757,-4.4825,-4.4833,-4.487,-4.4843,-4.4832,-4.4833,-4.4829,-4.4834,-4.4873,-4.4874,-4.4875,-4.4875,0,-4.4038,-4.4058,-4.4117,-4.4184,-4.4234,-4.4289,-4.4344,-4.4375,-4.4425,-4.4473,-4.4545,-4.4591,-4.4682,-4.4753,-4.4826,-4.4865,-4.4879,-4.4884,-4.4897,-4.4886,-4.4869,-4.4878,-4.4775,-4.488,-4.488,-4.4879,-4.4879,-4.4879,-4.4084,-4.4128,-4.4189,-4.4255,-4.4302,-4.4353,-4.4401,-4.4443,-4.4503,-4.458,-4.4601,-4.4677,-4.4739,-4.4839,-4.488,-4.494,-4.4935,-4.4953,-4.4958,-4.4962,-4.4962,-4.486,-4.4954,-4.4954,-4.4954,-4.4954,-4.4954,0,-4.4156,-4.4197,-4.4258,-4.4335,-4.4387,-4.4396,-4.4459,-4.4502,-4.4568,-4.4625,-4.4683,-4.4766,-4.4836,-4.4892,-4.4964,-4.5002,-4.501,-4.5019,-4.5016,-4.5025,-4.4963,-4.4944,-4.5011,-4.5011,-4.5011,-4.5011,-4.5011,-4.5011,-4.42,-4.4276,-4.4303,-4.4403,-4.4444,-4.4517,-4.4552,-4.4601,-4.4647,-4.4738,-4.4796,-4.4832,-4.489,-4.4967,-4.5032,-4.5047,-4.5072,-4.508,-4.5096,-4.5036,-4.5029,-4.5023,-4.5006,-4.5085,-4.5085,-4.5153,-4.5154,-4.5154]},{"header":{"parameterUnit":"m.s-1","parameterCategory":1,"la1":30.2991,"la2":30.254,"lo1":-89.0895,"lo2":-89.0444,"dy":0.0017,"dx":0.0017,"nx":28,"ny":28,"refTime":"2025-04-17T21:00:00:Z","depth":0,"parameterNumber":3,"parameterNumberName":"V-component_of_WINDS"},"data":[0,0,0,0,0,0,0,0,0,0,0,0,0,0,0,0,0,0,0,0,0,0,0,0,0,0,0,0,0,0,0,0,0,0,0,0,0,0,0,0,0,0,0,0,0,0,0,0,0,0,0,0,0,0,0,0,0,0,4.6712,4.6712,0,4.6741,4.6741,4.6742,4.6759,4.6759,4.6759,4.6759,4.6785,4.6786,4.6786,0,0,0,0,0,0,0,0,0,0,0,0,0,4.6668,4.6669,4.6712,4.6712,4.6713,4.6741,4.6741,4.6742,4.6759,4.6759,4.6759,4.6759,4.6785,4.6786,4.6786,0,0,0,0,0,0,0,0,0,0,0,0,0,4.6691,4.6669,4.6712,4.6725,4.6726,4.6741,4.6741,4.6742,4.6759,4.6759,4.6759,4.6759,4.6785,4.6786,4.6787,4.679,0,0,4.6789,4.679,0,0,0,0,0,0,0,0,4.669,4.6693,4.6722,4.6724,4.6725,4.6746,4.6736,4.6758,4.6759,4.6746,4.6759,4.6759,4.6772,4.6774,4.6779,4.6791,4.6792,4.6789,4.679,4.679,4.6791,0,0,0,0,0,0,0,4.6688,4.6692,4.6723,4.6723,4.6725,4.6728,4.6731,4.674,4.6758,4.6747,4.6749,4.6752,4.6773,4.6778,4.678,4.6793,4.6789,4.679,4.6791,4.6791,4.6809,4.6809,0,0,0,0,0,0,4.6685,4.669,4.6722,4.6724,4.6708,4.6729,4.6732,4.6739,4.6758,4.6761,4.6752,4.6753,4.6776,4.6779,4.6781,4.6786,4.679,4.6791,4.6792,4.6809,4.6809,4.6809,0,0,0,0,0,0,4.6684,4.6688,4.6721,4.6708,4.6712,4.6729,4.6737,4.674,4.6745,4.6761,4.6764,4.6754,4.6777,4.6779,4.6788,4.6787,4.6792,4.6793,4.6809,4.6809,4.6809,4.6797,0,0,0,0,0,0,4.6683,4.6687,4.669,4.6708,4.6713,4.6729,4.6737,4.674,4.6747,4.6749,4.6764,4.6767,4.6777,4.6786,4.6789,4.6789,4.6793,4.6809,4.6809,4.6809,4.6798,4.6797,4.6796,0,0,0,0,0,4.6681,4.6684,4.669,4.6693,4.6716,4.6729,4.6732,4.6744,4.6747,4.6749,4.6759,4.6766,4.6787,4.6787,4.679,4.679,4.681,4.6809,4.6809,4.6798,4.6797,4.6796,0,0,0,0,0,0,4.6664,4.6687,4.6693,4.6702,4.6714,4.6732,4.6735,4.6742,4.6752,4.6753,4.6766,4.677,4.6777,4.6784,4.6784,4.6795,4.6799,4.6799,4.679,4.6789,4.6788,4.6786,4.6794,0,0,0,0,0,4.6662,4.6672,4.669,4.6696,4.6702,4.6717,4.6723,4.6732,4.6744,4.6748,4.6759,4.6769,4.6778,4.6784,4.6793,4.6799,4.6802,4.68,4.6799,4.6798,4.6799,4.6803,4.6802,4.6808,4.6808,4.6808,0,0,4.6657,4.667,4.6675,4.6693,4.6703,4.6712,4.6721,4.673,4.6736,4.6749,4.6758,4.6766,4.6779,4.6786,4.679,4.6793,4.6798,4.6798,4.6797,4.6798,4.6802,4.6802,4.6801,4.6808,4.6808,4.6808,0,0,4.6652,4.6663,4.667,4.668,4.6695,4.6705,4.6707,4.6724,4.673,4.674,4.675,4.6757,4.6772,4.678,4.6787,4.6785,4.6792,4.6788,4.6783,4.6786,4.6786,4.6786,4.6785,4.6785,4.6788,4.6788,4.6788,0,4.6643,4.6658,4.6672,4.6681,4.6688,4.6701,4.6708,4.6716,4.6733,4.6738,4.6741,4.676,4.6769,4.6779,4.6779,4.6783,4.6785,4.6786,4.6785,4.6785,4.6785,4.6785,4.6784,4.6787,4.6787,4.6787,4.6787,0,4.6646,4.6656,4.666,4.6677,4.6685,4.6693,4.6707,4.6713,4.6721,4.673,4.674,4.6751,4.6763,4.6766,4.6773,4.6777,4.6778,4.6783,4.6788,4.6783,4.6783,4.6784,4.6786,4.6786,4.6787,4.6787,0,0,4.6632,4.6658,4.6659,4.6667,4.6685,4.6692,4.67,4.6713,4.6718,4.6729,4.6735,4.6748,4.6753,4.676,4.6768,4.6771,4.6769,4.6775,4.6776,4.6774,4.6774,4.6771,4.6771,4.6774,4.6774,4.6774,4.6773,0,4.663,4.6646,4.6659,4.667,4.6679,4.6692,4.6699,4.671,4.6719,4.6727,4.6736,4.6745,4.6751,4.6755,4.6759,4.6769,4.677,4.6769,4.678,4.678,4.6777,4.6771,4.6767,4.6766,4.6774,4.6774,4.6774,0,4.663,4.6642,4.6654,4.6672,4.6676,4.6682,4.6695,4.6703,4.6716,4.6722,4.673,4.6739,4.6747,4.675,4.6761,4.676,4.6765,4.6771,4.6771,4.6773,4.6777,4.6773,4.6766,4.6766,4.6774,4.6774,4.6774,0,4.6619,4.6638,4.6648,4.6655,4.6675,4.6679,4.6687,4.67,4.6707,4.6718,4.6722,4.6733,4.6739,4.6747,4.6758,4.676,4.6768,4.6772,4.6773,4.6773,4.6774,4.6774,4.6769,4.6777,4.6777,4.6777,4.6777,0,4.6616,4.6623,4.6644,4.665,4.6658,4.6672,4.6679,4.6688,4.67,4.6707,4.6718,4.6725,4.6739,4.6747,4.6755,4.6763,4.6765,4.677,4.6772,4.6769,4.6769,4.6773,4.6774,4.6777,4.6777,4.6777,4.6777,0,4.6605,4.6619,4.6631,4.665,4.6655,4.666,4.6675,4.6681,4.6691,4.67,4.6703,4.6718,4.6728,4.674,4.6753,4.6759,4.6766,4.6769,4.6762,4.6763,4.6763,4.6763,4.6761,4.6761,4.6768,4.6768,4.6768,0,4.6603,4.6609,4.6628,4.6635,4.6643,4.6653,4.6661,4.6675,4.6682,4.6697,4.6701,4.6712,4.6721,4.6736,4.6748,4.6758,4.6762,4.676,4.6763,4.676,4.6762,4.6762,4.6763,4.6759,4.6759,4.6759,4.6759,0,4.6597,4.6603,4.6615,4.6628,4.6637,4.6648,4.6659,4.6664,4.668,4.6687,4.6698,4.6705,4.672,4.673,4.6742,4.6749,4.6757,4.6758,4.6759,4.6756,4.6752,4.6755,4.676,4.6758,4.6758,4.6758,4.6758,4.6758,4.659,4.6596,4.6612,4.6623,4.6634,4.6644,4.6651,4.6662,4.6672,4.6685,4.6692,4.6703,4.6715,4.6732,4.6739,4.6747,4.675,4.6751,4.6751,4.6751,4.6751,4.6751,4.6749,4.6749,4.6749,4.6749,4.6749,0,4.6585,4.6596,4.6607,4.6623,4.6632,4.6639,4.6652,4.6659,4.6669,4.668,4.669,4.6702,4.6713,4.6725,4.6736,4.674,4.6744,4.6742,4.6742,4.6744,4.6747,4.6746,4.6739,4.6739,4.6739,4.6739,4.6739,4.6739,4.6584,4.6595,4.6603,4.6619,4.6629,4.6641,4.6648,4.6657,4.6667,4.6681,4.669,4.6698,4.6709,4.6721,4.6731,4.6734,4.6738,4.6736,4.674,4.6743,4.6744,4.6745,4.6743,4.6736,4.6736,4.6736,4.6736,4.6736]}]]